Wind_Speed
27 28 28 28 28 29 30 30 30 30 31 32 32 32 32 33 34 34 35 36 36 36 37 38 39 40 40 41 42 43 42 43 44 45 45 45 45 45 44 44 44 44 45 45
26 26 26 27 28 29 29 29 30 31 31 32 32 31 31 32 33 34 35 35 36 36 36 38 40 41 42 43 44 44 43 43 44 45 46 46 46 46 46 46 45 45 46 46
25 25 25 26 28 29 29 29 29 30 31 31 31 30 30 30 32 33 33 34 36 36 37 38 39 40 41 42 42 44 44 43 44 45 46 47 48 47 47 46 47 46 46 47
23 23 24 25 25 27 28 29 29 30 30 30 30 30 29 30 30 30 32 34 35 36 37 38 38 39 40 41 42 42 42 43 44 45 46 46 46 47 47 46 45 45 47 47
21 22 22 23 24 24 25 26 27 29 29 28 29 30 28 29 29 30 31 32 34 35 36 37 39 39 40 40 40 41 41 42 43 44 45 45 46 46 46 46 46 46 46 47
21 21 22 23 23 23 24 24 25 27 27 28 27 29 28 27 28 28 29 31 33 34 35 36 37 38 39 40 40 40 40 41 41 43 44 44 44 44 45 45 45 45 46 46
21 21 21 22 22 22 23 24 24 25 26 27 27 27 27 27 27 28 29 30 32 33 34 35 35 37 38 39 39 40 40 40 40 41 42 42 42 42 43 43 44 44 45 45
21 21 21 22 23 23 23 23 24 25 26 26 26 27 27 28 29 29 30 30 31 32 33 34 34 35 36 36 37 38 39 39 39 39 40 40 40 41 42 42 43 43 43 42
21 21 21 22 23 24 24 24 24 26 27 27 27 26 27 28 29 29 30 30 30 31 32 33 33 33 33 34 35 36 36 37 38 38 38 38 39 40 41 41 42 41 41 41
21 21 21 22 23 24 24 24 25 26 27 29 29 28 27 27 27 28 29 29 30 30 30 31 32 32 32 33 35 35 36 36 37 37 38 37 38 39 40 40 39 38 38 39
21 22 21 22 22 22 23 24 25 27 28 29 30 28 27 28 28 27 28 28 29 29 30 30 31 32 32 32 33 34 35 35 35 36 36 36 37 38 37 37 37 38 37 37
21 22 22 22 22 22 23 24 25 27 28 29 30 27 27 28 28 28 28 28 28 29 30 30 30 31 32 33 34 34 34 34 34 35 35 35 35 35 35 35 36 37 36 36
22 22 22 22 22 23 23 24 25 27 28 28 28 27 28 28 29 29 29 29 29 29 30 30 30 31 32 33 33 33 33 33 33 33 33 33 34 34 33 34 35 35 35 34
23 23 23 22 23 24 24 24 25 27 28 28 27 27 27 29 29 29 29 30 30 29 29 29 30 30 31 31 31 31 31 32 32 33 32 32 32 32 33 33 33 33 33 33
24 24 24 23 24 24 24 25 25 26 27 29 27 27 26 28 29 29 29 29 30 29 29 29 29 30 30 30 30 31 31 31 32 32 32 31 31 31 31 31 31 31 31 32
24 25 25 25 25 26 26 25 26 26 27 28 27 26 26 27 28 29 29 29 29 29 29 29 29 30 30 30 30 30 30 30 31 31 30 30 30 30 30 30 30 30 29 30
25 26 26 25 25 27 26 24 25 27 27 28 28 26 27 27 28 28 29 28 28 28 28 29 29 29 29 29 30 30 29 29 29 29 29 29 29 29 29 29 29 29 29 29
25 26 27 27 26 27 25 24 25 26 26 27 27 26 26 27 27 27 28 28 27 27 26 27 27 28 28 28 28 29 28 28 28 28 28 28 28 29 29 29 29 29 29 29
25 26 27 27 28 27 24 24 24 25 23 24 25 24 25 25 26 26 27 27 27 27 27 27 27 27 27 27 27 28 27 27 27 27 28 28 29 29 29 28 27 28 29 29
25 26 27 27 28 27 24 24 24 24 23 22 23 24 24 25 25 25 26 27 28 28 27 26 26 26 26 26 26 26 26 27 27 27 27 28 28 28 28 28 27 29 29 29
24 25 25 26 27 26 25 24 24 23 22 22 23 23 24 25 25 25 26 26 27 28 27 26 25 25 25 26 26 25 25 26 26 26 27 27 27 27 27 28 28 28 28 29
24 25 25 25 25 24 24 23 23 22 22 23 23 23 24 25 25 25 26 26 27 27 27 26 26 25 25 25 25 25 25 25 24 25 25 26 27 27 27 27 27 28 28 28
25 25 26 25 24 24 24 23 23 22 23 23 24 23 24 24 25 25 26 26 26 26 26 26 26 26 26 25 25 24 25 24 24 24 24 25 26 26 26 26 26 27 27 26
25 26 26 25 23 24 24 24 24 24 24 23 23 23 24 24 24 25 25 25 26 26 26 26 26 26 25 24 24 24 24 24 24 24 24 24 25 24 24 24 24 23 23 24
25 25 25 24 24 24 24 24 25 25 25 24 23 23 24 24 24 24 25 25 25 24 25 25 24 24 24 24 24 25 24 24 23 23 22 22 22 21 20 19 19 19 20 21
24 24 24 23 23 24 24 24 25 25 25 24 23 23 24 25 25 25 25 24 23 23 23 23 23 22 23 23 23 24 24 23 21 20 19 18 18 18 17 16 16 17 17 18
Wind_Direction
266 266 265 265 264 264 264 264 262 261 261 263 262 263 263 262 262 262 262 261 261 260 258 258 257 258 260 260 261 262 261 260 260 261 263 264 265 265 265 266 267 268 269 267
267 265 263 264 266 266 266 263 262 262 263 263 262 263 263 262 263 263 262 262 261 260 259 260 261 262 262 263 264 264 264 264 263 263 264 264 265 265 265 266 267 269 270 269
267 266 265 266 266 267 265 263 263 263 265 267 266 263 263 264 263 263 262 262 263 262 261 262 262 263 264 264 265 266 266 266 266 265 265 265 265 266 267 267 268 269 269 270
269 268 269 268 267 267 264 262 263 266 267 267 268 267 265 267 266 265 264 264 263 264 264 263 264 265 265 265 266 267 268 268 268 267 265 266 266 266 266 266 267 268 269 269
273 270 269 269 268 267 265 264 266 267 267 268 268 269 269 269 268 268 266 266 266 266 266 265 265 265 265 266 266 267 269 269 269 269 266 266 268 267 266 266 267 268 269 269
275 271 269 269 267 266 265 266 268 269 269 269 269 270 270 271 271 271 270 269 269 268 269 269 268 267 266 266 266 268 268 269 270 270 269 267 268 268 268 267 267 268 269 269
274 272 270 268 268 267 265 266 268 271 270 271 270 271 272 273 273 273 274 272 270 271 270 270 270 269 268 268 268 269 269 270 271 271 270 269 269 269 269 267 266 268 269 268
274 274 272 268 267 268 268 267 270 274 274 272 271 273 275 277 276 276 276 275 274 272 271 271 272 271 270 270 271 270 270 270 271 272 272 272 270 270 270 268 267 267 267 267
275 274 273 270 268 268 269 270 272 276 276 274 274 276 277 279 278 278 277 277 276 275 273 272 273 274 273 272 272 271 271 271 271 272 273 274 272 271 270 268 269 268 267 266
277 277 275 273 269 269 269 271 273 275 278 277 276 277 281 282 281 280 280 279 277 275 275 274 274 275 275 274 273 273 273 272 272 272 274 275 273 272 270 268 269 269 268 267
279 279 278 275 271 270 269 270 273 275 277 278 279 280 281 282 281 281 281 281 279 277 275 275 275 275 276 275 275 274 274 272 272 273 275 274 273 272 271 269 269 269 269 268
281 281 280 277 275 273 273 273 273 275 278 279 280 282 283 283 282 281 281 281 281 279 276 276 275 275 275 277 277 276 275 274 273 274 274 273 272 272 272 272 269 268 268 267
280 281 281 278 277 277 276 276 276 277 280 282 282 282 282 282 283 282 282 282 281 281 279 276 276 276 276 278 279 279 277 275 275 275 274 272 271 271 273 273 270 270 270 269
280 280 280 280 280 279 278 277 277 279 281 283 284 283 281 281 281 281 281 282 282 282 281 278 277 277 278 279 279 278 278 277 277 277 274 272 270 270 272 273 272 273 272 270
282 282 281 279 281 281 280 279 280 281 283 284 284 283 283 283 283 283 283 283 284 283 282 281 279 278 279 279 278 277 278 279 278 278 275 272 270 271 273 273 274 274 275 272
283 283 283 280 280 280 279 280 280 282 283 284 283 283 284 283 283 283 284 284 284 284 282 282 282 280 280 280 278 278 278 280 280 278 276 272 271 271 273 274 275 275 275 272
285 284 285 284 281 280 279 282 282 283 284 284 284 285 283 283 283 283 283 284 283 282 282 283 284 284 283 281 279 278 279 280 280 278 275 273 272 273 274 274 274 275 275 274
286 286 286 285 283 282 284 284 284 285 287 287 287 286 284 284 284 283 283 283 284 283 284 286 287 287 286 284 281 280 281 281 282 280 277 274 272 274 275 273 272 274 274 275
288 287 286 285 285 285 284 286 285 286 289 290 289 288 286 286 284 283 283 283 284 284 285 285 286 288 287 285 284 285 282 282 282 281 278 275 273 274 274 272 271 273 275 276
287 287 286 285 285 287 287 285 285 286 289 291 291 290 288 287 286 286 285 285 285 286 287 286 287 287 287 286 287 287 283 282 282 281 278 277 275 274 273 272 272 274 275 276
288 287 286 286 286 285 287 287 286 287 290 291 292 291 289 289 290 289 287 286 287 288 287 286 286 287 288 287 287 287 285 285 283 283 280 278 277 277 275 274 274 275 276 277
290 289 288 287 286 287 285 286 287 288 287 290 292 292 292 291 290 289 289 288 287 287 287 286 286 287 289 289 288 287 286 285 285 284 282 281 280 279 275 275 275 275 276 279
290 290 290 288 286 285 284 284 284 283 286 288 290 291 293 293 292 291 290 289 286 286 287 288 288 288 289 290 290 288 287 286 285 284 283 282 282 281 277 275 275 275 275 276
290 288 288 288 287 285 283 283 283 283 285 287 290 292 293 293 293 294 293 291 288 287 289 290 290 289 289 288 288 289 289 288 287 284 283 283 284 284 280 276 276 274 272 273
292 289 287 287 287 284 283 282 282 284 284 285 286 288 291 292 294 295 296 295 293 292 292 292 292 291 290 288 287 287 288 289 290 286 284 283 283 282 280 280 275 272 274 275
292 291 289 288 287 285 282 281 282 283 284 285 286 286 289 291 294 295 296 296 296 295 294 295 294 292 290 288 287 288 288 290 291 288 285 284 284 281 278 277 277 275 277 277
Height
5673 5674 5673 5674 5674 5674 5674 5674 5675 5676 5676 5677 5679 5680 5681 5680 5681 5682 5682 5682 5683 5684 5684 5685 5687 5688 5688 5689 5690 5691 5692 5692 5693 5694 5695 5696 5696 5697 5697 5697 5696 5696 5695 5695
5667 5667 5667 5666 5667 5667 5667 5667 5668 5669 5669 5669 5671 5672 5673 5673 5673 5673 5673 5674 5674 5675 5676 5676 5677 5678 5679 5679 5680 5680 5681 5681 5682 5683 5684 5685 5685 5685 5686 5685 5685 5684 5684 5683
5660 5661 5660 5660 5660 5660 5660 5661 5661 5662 5662 5662 5663 5665 5666 5665 5664 5665 5665 5665 5666 5666 5666 5667 5668 5668 5669 5669 5669 5670 5670 5670 5671 5671 5672 5673 5673 5674 5674 5674 5674 5673 5672 5671
5653 5653 5653 5653 5653 5653 5653 5654 5654 5654 5655 5655 5656 5656 5659 5657 5657 5657 5657 5657 5657 5657 5657 5657 5657 5658 5658 5658 5659 5659 5659 5659 5659 5659 5660 5661 5661 5662 5663 5662 5662 5661 5660 5659
5647 5647 5647 5647 5647 5647 5647 5647 5647 5647 5647 5648 5649 5648 5652 5650 5650 5649 5649 5649 5649 5649 5648 5648 5648 5648 5648 5648 5648 5649 5649 5649 5649 5648 5649 5649 5649 5650 5650 5649 5649 5648 5647 5646
5642 5642 5641 5641 5641 5641 5641 5641 5641 5641 5641 5642 5643 5642 5643 5642 5642 5642 5641 5641 5640 5640 5640 5639 5638 5638 5638 5638 5638 5638 5639 5638 5638 5638 5637 5638 5638 5638 5637 5637 5636 5636 5635 5634
5637 5636 5636 5636 5636 5636 5636 5636 5636 5634 5634 5636 5636 5635 5636 5635 5635 5634 5634 5633 5632 5632 5631 5630 5629 5628 5628 5628 5628 5628 5628 5628 5628 5627 5627 5627 5627 5626 5625 5625 5624 5624 5623 5622
5631 5632 5631 5630 5630 5630 5630 5630 5630 5629 5628 5629 5629 5629 5631 5629 5628 5627 5626 5625 5624 5623 5622 5621 5621 5620 5619 5618 5618 5618 5618 5618 5617 5617 5617 5616 5615 5614 5614 5613 5612 5612 5611 5611
5626 5626 5625 5625 5624 5625 5624 5624 5624 5624 5622 5622 5622 5623 5624 5622 5621 5620 5618 5617 5616 5615 5613 5613 5612 5611 5610 5609 5609 5608 5608 5608 5607 5607 5607 5606 5604 5604 5603 5602 5601 5600 5600 5599
5621 5621 5620 5619 5619 5619 5619 5619 5618 5617 5615 5615 5616 5617 5617 5615 5613 5612 5611 5609 5608 5607 5606 5605 5604 5603 5602 5601 5600 5599 5599 5598 5598 5598 5597 5595 5594 5593 5592 5591 5591 5590 5589 5588
5616 5616 5615 5614 5614 5613 5613 5613 5612 5610 5610 5609 5608 5613 5610 5608 5606 5605 5604 5602 5600 5599 5598 5597 5596 5595 5594 5593 5592 5591 5590 5589 5589 5588 5586 5585 5584 5583 5582 5581 5581 5580 5579 5579
5610 5610 5609 5609 5608 5607 5607 5607 5606 5605 5604 5602 5601 5606 5602 5600 5598 5597 5596 5594 5593 5592 5590 5589 5588 5587 5586 5585 5583 5582 5581 5581 5580 5578 5577 5576 5575 5574 5573 5571 5571 5570 5570 5570
5605 5605 5604 5604 5605 5603 5601 5600 5599 5598 5597 5595 5594 5600 5595 5593 5591 5590 5588 5587 5585 5584 5583 5582 5580 5579 5578 5576 5575 5573 5572 5572 5570 5569 5568 5566 5565 5564 5563 5562 5562 5561 5561 5560
5600 5599 5599 5599 5597 5596 5595 5594 5592 5591 5590 5589 5589 5590 5589 5585 5584 5582 5581 5579 5578 5576 5575 5574 5573 5571 5570 5568 5567 5565 5564 5563 5561 5560 5558 5557 5556 5556 5555 5554 5553 5552 5552 5551
5594 5593 5593 5592 5591 5589 5589 5588 5586 5585 5583 5582 5582 5581 5581 5578 5576 5575 5573 5572 5570 5568 5567 5566 5564 5563 5562 5560 5558 5557 5556 5554 5552 5551 5549 5548 5547 5547 5546 5545 5544 5544 5543 5543
5587 5587 5586 5586 5585 5583 5582 5582 5580 5579 5577 5575 5574 5574 5573 5570 5568 5567 5565 5564 5562 5561 5559 5558 5556 5555 5553 5552 5550 5549 5547 5545 5543 5541 5540 5539 5539 5538 5538 5537 5537 5536 5536 5535
5581 5580 5579 5579 5578 5576 5576 5577 5574 5572 5571 5569 5567 5567 5565 5563 5561 5559 5557 5556 5554 5553 5552 5550 5548 5546 5545 5543 5542 5540 5539 5537 5535 5533 5532 5531 5531 5530 5530 5529 5529 5529 5528 5527
5575 5574 5572 5571 5571 5569 5573 5569 5567 5565 5564 5562 5560 5558 5557 5555 5553 5552 5550 5548 5547 5546 5544 5542 5540 5539 5537 5535 5533 5531 5530 5529 5527 5525 5524 5523 5523 5522 5522 5522 5521 5521 5521 5521
5569 5567 5565 5564 5562 5562 5564 5563 5560 5558 5558 5555 5553 5551 5549 5548 5546 5545 5543 5541 5540 5538 5537 5535 5533 5531 5529 5527 5525 5524 5522 5521 5519 5517 5517 5516 5515 5514 5514 5514 5514 5514 5513 5513
5562 5561 5560 5557 5555 5555 5558 5556 5553 5552 5551 5550 5547 5545 5543 5541 5540 5540 5536 5534 5533 5531 5529 5527 5525 5524 5522 5520 5518 5516 5515 5513 5512 5510 5509 5508 5507 5506 5506 5506 5506 5506 5505 5505
5556 5554 5553 5551 5549 5549 5551 5548 5547 5547 5546 5543 5540 5538 5537 5535 5533 5532 5529 5527 5525 5524 5522 5520 5518 5517 5515 5513 5511 5509 5507 5505 5504 5502 5501 5500 5499 5498 5498 5498 5498 5498 5497 5497
5549 5547 5546 5544 5543 5545 5543 5541 5541 5540 5538 5536 5534 5532 5530 5528 5526 5524 5522 5520 5518 5516 5515 5513 5511 5510 5508 5506 5504 5502 5500 5498 5496 5495 5494 5493 5492 5491 5490 5491 5490 5490 5490 5490
5543 5542 5540 5539 5540 5538 5536 5535 5534 5533 5531 5529 5528 5526 5524 5522 5519 5517 5515 5513 5511 5509 5508 5506 5504 5502 5500 5498 5497 5495 5493 5491 5490 5488 5487 5486 5484 5484 5483 5483 5483 5482 5482 5482
5537 5535 5533 5532 5532 5531 5529 5528 5527 5526 5524 5523 5522 5520 5517 5515 5513 5511 5508 5506 5504 5503 5501 5499 5497 5495 5493 5491 5490 5488 5486 5484 5483 5482 5480 5479 5478 5477 5476 5476 5476 5476 5475 5475
5531 5528 5526 5526 5525 5524 5522 5521 5520 5519 5518 5516 5515 5513 5511 5509 5507 5505 5502 5500 5498 5496 5494 5492 5490 5488 5486 5484 5483 5481 5479 5478 5476 5475 5474 5472 5471 5471 5470 5470 5469 5470 5470 5469
5525 5523 5521 5520 5519 5517 5516 5515 5513 5512 5511 5510 5508 5507 5505 5502 5501 5498 5496 5494 5491 5489 5487 5485 5483 5481 5479 5478 5476 5474 5472 5471 5470 5469 5468 5467 5466 5466 5466 5465 5465 5464 5464 5464